Time,TemperatureF,DewpointF,PressureIn,WindDirection,WindDirectionDegrees,WindSpeedMPH,WindSpeedGustMPH,Humidity,HourlyPrecipIn,Conditions,Clouds,dailyrainin,SoftwareType,DateUTC
2013-02-10 00:00:00,42.0,38.0,29.81,SSE,160,44.0,58.0,85,-99.99,,,-99.99,,2013-02-10 09:00:00,
2013-02-10 00:41:00,42.0,38.0,29.81,SSE,160,44.0,58.0,85,-99.99,,,-99.99,,2013-02-10 09:41:00,
2013-02-10 00:51:00,42.0,38.0,29.81,SSE,160,44.0,58.0,85,-99.99,,,-99.99,,2013-02-10 09:51:00,
2013-02-10 01:00:00,41.0,37.0,29.81,SSE,160,40.0,61.0,85,-99.99,,,-99.99,,2013-02-10 10:00:00,
2013-02-10 01:41:00,41.0,37.0,29.81,SSE,160,40.0,61.0,85,-99.99,,,-99.99,,2013-02-10 10:41:00,
2013-02-10 01:51:00,41.0,37.0,29.81,SSE,160,40.0,61.0,85,-99.99,,,-99.99,,2013-02-10 10:51:00,
2013-02-10 02:00:00,41.0,36.0,29.81,SSE,160,45.0,66.0,82,-99.99,,,-99.99,,2013-02-10 11:00:00,
2013-02-10 02:41:00,41.0,36.0,29.81,SSE,160,45.0,66.0,82,-99.99,,,-99.99,,2013-02-10 11:41:00,
2013-02-10 02:52:00,41.0,36.0,29.81,SSE,160,45.0,66.0,82,-99.99,,,-99.99,,2013-02-10 11:52:00,
2013-02-10 03:00:00,40.0,36.0,29.81,SSE,150,43.0,71.0,85,-99.99,,,-99.99,,2013-02-10 12:00:00,
2013-02-10 03:41:00,40.0,36.0,29.81,SSE,150,43.0,71.0,85,-99.99,,,-99.99,,2013-02-10 12:41:00,
2013-02-10 03:52:00,40.0,36.0,29.81,SSE,150,43.0,71.0,85,-99.99,,,-99.99,,2013-02-10 12:52:00,
2013-02-10 04:00:00,40.0,35.0,29.79,SSE,160,39.0,66.0,82,-99.99,,,-99.99,,2013-02-10 13:00:00,
2013-02-10 04:41:00,40.0,35.0,29.79,SSE,160,39.0,66.0,82,-99.99,,,-99.99,,2013-02-10 13:41:00,
2013-02-10 04:51:00,40.0,35.0,29.79,SSE,160,39.0,66.0,82,-99.99,,,-99.99,,2013-02-10 13:51:00,
2013-02-10 05:00:00,41.0,36.0,29.77,SSE,160,46.0,61.0,82,-99.99,,,-99.99,,2013-02-10 14:00:00,
2013-02-10 05:41:00,41.0,36.0,29.77,SSE,160,46.0,61.0,82,-99.99,,,-99.99,,2013-02-10 14:41:00,
2013-02-10 05:51:00,41.0,36.0,29.77,SSE,160,46.0,61.0,82,-99.99,,,-99.99,,2013-02-10 14:51:00,
2013-02-10 06:00:00,41.0,36.0,29.77,SSE,160,39.0,61.0,82,-99.99,,,-99.99,,2013-02-10 15:00:00,
2013-02-10 06:41:00,41.0,36.0,29.77,SSE,160,39.0,61.0,82,-99.99,,,-99.99,,2013-02-10 15:41:00,
2013-02-10 06:51:00,41.0,36.0,29.77,SSE,160,39.0,61.0,82,-99.99,,,-99.99,,2013-02-10 15:51:00,
2013-02-10 07:00:00,41.0,37.0,29.75,SSE,160,41.0,59.0,85,-99.99,,,-99.99,,2013-02-10 16:00:00,
2013-02-10 07:41:00,41.0,37.0,29.75,SSE,160,41.0,59.0,85,-99.99,,,-99.99,,2013-02-10 16:41:00,
2013-02-10 07:51:00,41.0,37.0,29.75,SSE,160,41.0,59.0,85,-99.99,,,-99.99,,2013-02-10 16:51:00,
2013-02-10 08:00:00,40.0,37.0,29.76,SSE,160,36.0,55.0,89,-99.99,,,-99.99,,2013-02-10 17:00:00,
2013-02-10 08:41:00,40.0,37.0,29.76,SSE,160,36.0,55.0,89,-99.99,,,-99.99,,2013-02-10 17:41:00,
2013-02-10 08:52:00,40.0,37.0,29.76,SSE,160,36.0,55.0,89,-99.99,,,-99.99,,2013-02-10 17:52:00,
2013-02-10 09:00:00,40.0,36.0,29.76,SSE,160,37.0,54.0,85,-99.99,,,-99.99,,2013-02-10 18:00:00,
2013-02-10 09:41:00,40.0,36.0,29.76,SSE,160,37.0,54.0,85,-99.99,,,-99.99,,2013-02-10 18:41:00,
2013-02-10 09:51:00,40.0,36.0,29.76,SSE,160,37.0,54.0,85,-99.99,,,-99.99,,2013-02-10 18:51:00,
2013-02-10 10:00:00,41.0,36.0,29.78,SSE,150,39.0,55.0,82,-99.99,,,-99.99,,2013-02-10 19:00:00,
2013-02-10 10:42:00,41.0,36.0,29.78,SSE,150,39.0,55.0,82,-99.99,,,-99.99,,2013-02-10 19:42:00,
2013-02-10 10:51:00,41.0,36.0,29.78,SSE,150,39.0,55.0,82,-99.99,,,-99.99,,2013-02-10 19:51:00,
2013-02-10 11:00:00,41.0,36.0,29.78,SSE,160,40.0,59.0,82,-99.99,,,-99.99,,2013-02-10 20:00:00,
2013-02-10 11:41:00,41.0,36.0,29.78,SSE,160,40.0,59.0,82,-99.99,,,-99.99,,2013-02-10 20:41:00,
2013-02-10 11:52:00,41.0,36.0,29.78,SSE,160,40.0,59.0,82,-99.99,,,-99.99,,2013-02-10 20:52:00,
2013-02-10 13:00:00,40.0,36.0,29.78,SSE,150,41.0,59.0,85,-99.99,,,-99.99,,2013-02-10 22:00:00,
2013-02-10 13:41:00,40.0,36.0,29.78,SSE,150,41.0,59.0,85,-99.99,,,-99.99,,2013-02-10 22:41:00,
2013-02-10 13:52:00,40.0,36.0,29.78,SSE,150,41.0,59.0,85,-99.99,,,-99.99,,2013-02-10 22:52:00,
2013-02-10 14:00:00,40.0,36.0,29.79,SSE,150,44.0,63.0,85,-99.99,,,-99.99,,2013-02-10 23:00:00,
2013-02-10 14:41:00,40.0,36.0,29.79,SSE,150,44.0,63.0,85,-99.99,,,-99.99,,2013-02-10 23:41:00,
2013-02-10 14:52:00,40.0,36.0,29.79,SSE,150,44.0,63.0,85,-99.99,,,-99.99,,2013-02-10 23:52:00,
2013-02-10 15:00:00,40.0,35.0,29.81,SSE,160,34.0,58.0,82,-99.99,,,-99.99,,2013-02-11 00:00:00,
2013-02-10 15:41:00,40.0,35.0,29.81,SSE,160,34.0,58.0,82,-99.99,,,-99.99,,2013-02-11 00:41:00,
2013-02-10 15:51:00,40.0,35.0,29.81,SSE,160,34.0,58.0,82,-99.99,,,-99.99,,2013-02-11 00:51:00,
2013-02-10 16:00:00,38.0,35.0,29.84,South,170,30.0,52.0,89,-99.99,,,-99.99,,2013-02-11 01:00:00,
2013-02-10 16:41:00,38.0,35.0,29.84,South,170,30.0,52.0,89,-99.99,,,-99.99,,2013-02-11 01:41:00,
2013-02-10 16:51:00,38.0,35.0,29.84,South,170,30.0,52.0,89,-99.99,,,-99.99,,2013-02-11 01:51:00,
2013-02-10 17:00:00,38.0,35.0,29.84,SSE,160,33.0,50.0,89,-99.99,,,-99.99,,2013-02-11 02:00:00,
2013-02-10 17:41:00,38.0,35.0,29.84,SSE,160,33.0,50.0,89,-99.99,,,-99.99,,2013-02-11 02:41:00,
2013-02-10 17:52:00,38.0,35.0,29.84,SSE,160,33.0,50.0,89,-99.99,,,-99.99,,2013-02-11 02:52:00,
2013-02-10 18:00:00,38.0,36.0,29.84,SSE,150,31.0,47.0,92,-99.99,,,-99.99,,2013-02-11 03:00:00,
2013-02-10 18:41:00,38.0,36.0,29.84,SSE,150,31.0,47.0,92,-99.99,,,-99.99,,2013-02-11 03:41:00,
2013-02-10 18:51:00,38.0,36.0,29.84,SSE,150,31.0,47.0,92,-99.99,,,-99.99,,2013-02-11 03:51:00,
2013-02-10 20:00:00,39.0,33.0,29.84,SSE,160,38.0,51.0,79,-99.99,,,-99.99,,2013-02-11 05:00:00,
2013-02-10 20:41:00,39.0,33.0,29.84,SSE,160,38.0,51.0,79,-99.99,,,-99.99,,2013-02-11 05:41:00,
2013-02-10 20:52:00,39.0,33.0,29.84,SSE,160,38.0,51.0,79,-99.99,,,-99.99,,2013-02-11 05:52:00,
2013-02-10 21:00:00,38.0,33.0,29.83,SSE,160,36.0,51.0,82,-99.99,,,-99.99,,2013-02-11 06:00:00,
2013-02-10 21:41:00,38.0,33.0,29.83,SSE,160,36.0,51.0,82,-99.99,,,-99.99,,2013-02-11 06:41:00,
2013-02-10 21:51:00,38.0,33.0,29.83,SSE,160,36.0,51.0,82,-99.99,,,-99.99,,2013-02-11 06:51:00,
2013-02-10 22:00:00,38.0,33.0,29.81,SSE,160,33.0,50.0,82,-99.99,,,-99.99,,2013-02-11 07:00:00,
2013-02-10 22:41:00,38.0,33.0,29.81,SSE,160,33.0,50.0,82,-99.99,,,-99.99,,2013-02-11 07:41:00,
2013-02-10 22:51:00,38.0,33.0,29.81,SSE,160,33.0,50.0,82,-99.99,,,-99.99,,2013-02-11 07:51:00,
2013-02-10 23:00:00,38.0,34.0,29.80,SSE,160,37.0,47.0,85,-99.99,,,-99.99,,2013-02-11 08:00:00,
2013-02-10 23:42:00,38.0,34.0,29.80,SSE,160,37.0,47.0,85,-99.99,,,-99.99,,2013-02-11 08:42:00,
2013-02-10 23:51:00,38.0,34.0,29.80,SSE,160,37.0,47.0,85,-99.99,,,-99.99,,2013-02-11 08:51:00,